EW3182 Weather Reports


Display with metric or nautical units.
time (UTC)temp
F
wind
direction
speed
MPH
gust
MPH
rain 1hr
in
rain 24hr
in
rain mn
in
humidity
%
barometer
mb
20260507060059 55 101 0.0 0.0 0.00 0.18 0.00 81 1016.5
20260507054559 56 103 0.0 0.0 0.00 0.18 0.00 79 1016.5
20260507053120 56 103 0.0 3.0 0.00 0.18 0.00 78 1016.4
20260507051600 57 85 0.0 3.0 0.00 0.18 0.00 78 1016.3
20260507050048 57 130 0.0 5.0 0.00 0.18 0.00 77 1016.4
20260507044554 58 136 0.0 3.0 0.00 0.18 0.18 77 1016.5
20260507043050 58 91 1.0 4.0 0.00 0.18 0.18 76 1016.4
20260507041547 59 103 0.0 4.0 0.00 0.18 0.18 76 1016.6
20260507040046 59 120 0.0 7.0 0.00 0.18 0.18 76 1016.8
20260507034544 59 99 0.0 2.0 0.00 0.18 0.18 76 1016.8
20260507033050 59 97 0.0 4.0 0.00 0.18 0.18 76 1016.8
20260507031542 59 84 0.0 3.0 0.00 0.18 0.18 76 1016.5
20260507030042 60 110 0.0 6.0 0.00 0.18 0.18 76 1016.6
20260507024541 60 108 0.0 6.0 0.00 0.18 0.18 76 1016.0
20260507023038 60 72 0.0 3.0 0.00 0.18 0.18 76 1015.8
20260507021535 60 106 0.0 3.0 0.00 0.18 0.18 77 1015.4
20260507020040 60 100 0.0 4.0 0.00 0.18 0.18 77 1015.1
20260507014542 60 99 0.0 2.0 0.00 0.18 0.18 78 1014.8
20260507013034 61 130 0.0 1.0 0.00 0.18 0.18 77 1014.5
20260507011539 61 127 0.0 2.0 0.00 0.18 0.18 77 1014.2
20260507010035 61 152 0.0 2.0 0.00 0.18 0.18 77 1013.9
20260507004537 61 122 0.0 4.0 0.00 0.18 0.18 77 1013.8
20260507003031 62 103 0.0 5.0 0.00 0.18 0.18 78 1013.6
20260507001530 62 285 0.0 3.0 0.00 0.18 0.18 77 1013.5
20260507000029 62 98 0.0 1.0 0.00 0.18 0.18 78 1013.3
20260506234529 62 98 0.0 2.0 0.00 0.18 0.18 78 1013.2
20260506233029 63 116 0.0 1.0 0.00 0.18 0.18 79 1013.0
20260506231528 63 97 1.0 3.0 0.00 0.18 0.18 78 1012.8
20260506230025 63 302 0.0 1.0 0.00 0.18 0.18 81 1012.7
20260506224525 62 110 0.0 4.0 0.03 0.18 0.18 80 1012.9
20260506223024 62 121 0.0 1.0 0.05 0.18 0.18 82 1012.6
20260506221523 61 86 0.0 3.0 0.05 0.18 0.18 82 1012.6
20260506220033 60 110 0.0 2.0 0.05 0.18 0.18 81 1012.6
20260506214524 62 103 0.0 1.0 0.02 0.15 0.15 77 1013.0
20260506213028 63 92 0.0 1.0 0.00 0.13 0.13 74 1012.6
20260506211520 62 111 0.0 3.0 0.00 0.13 0.13 76 1012.9
20260506210023 62 110 0.0 3.0 0.00 0.13 0.13 73 1013.0
20260506204520 63 297 0.0 4.0 0.00 0.13 0.13 73 1012.9
20260506203021 63 293 0.0 1.0 0.00 0.13 0.13 74 1013.0
20260506201517 62 77 0.0 1.0 0.00 0.13 0.13 77 1013.4
20260506200020 60 113 0.0 2.0 0.00 0.13 0.13 77 1013.4
20260506194516 60 149 0.0 2.0 0.00 0.13 0.13 78 1013.7
20260506193016 59 111 0.0 1.0 0.00 0.13 0.13 78 1014.3
20260506191515 58 128 0.0 1.0 0.00 0.13 0.13 79 1014.0
20260506190022 57 120 0.0 1.0 0.00 0.13 0.13 80 1014.1
20260506184517 57 100 0.0 2.0 0.00 0.13 0.13 80 1014.1
20260506183015 58 121 0.0 1.0 0.00 0.13 0.13 80 1013.4
20260506181516 58 70 0.0 4.0 0.00 0.13 0.13 82 1012.5
20260506180012 57 303 0.0 3.0 0.00 0.13 0.13 82 1012.9
20260506174510 55 83 0.0 2.0 0.00 0.13 0.13 82 1013.3
20260506173011 55 125 0.0 4.0 0.00 0.13 0.13 82 1013.3
20260506171509 54 104 0.0 3.0 0.00 0.13 0.13 82 1013.3
20260506170011 54 93 0.0 1.0 0.00 0.13 0.13 80 1013.4
20260506164509 54 273 0.0 1.0 0.00 0.13 0.13 80 1013.5
20260506163009 53 97 0.0 2.0 0.00 0.13 0.13 81 1013.8
20260506161507 54 105 0.0 7.0 0.01 0.13 0.13 81 1013.9
20260506160007 54 291 0.0 1.0 0.12 0.13 0.13 79 1013.2
20260506154505 54 198 0.0 1.0 0.13 0.13 0.13 79 1012.8
20260506153009 53 355 0.0 3.0 0.13 0.13 0.13 81 1013.6
20260506151503 53 101 0.0 0.0 0.12 0.12 0.12 83 1014.2
20260506150103 54 63 0.0 1.0 0.01 0.01 0.01 82 1015.2
20260506144607 54 341 0.0 1.0 0.00 0.00 0.00 82 1014.4
20260506143057 54 98 0.0 3.0 0.00 0.00 0.00 82 1013.1
20260506141556 54 90 0.0 3.0 0.00 0.00 0.00 81 1013.8
20260506140054 54 113 0.0 1.0 0.00 0.00 0.00 82 1013.6
20260506134554 53 143 0.0 3.0 0.00 0.00 0.00 82 1013.1
20260506133053 53 8 0.0 2.0 0.00 0.00 0.00 81 1012.5
20260506131648 53 104 0.0 1.0 0.00 0.00 0.00 81 1012.6
20260506130046 53 142 0.0 1.0 0.00 0.00 0.00 81 1012.3
20260506124542 54 194 0.0 1.0 0.00 0.00 0.00 81 1012.2
20260506123039 0 0.0 0.0 0.00 0.00 0.00 1012.0
20260506121534 0 0.0 0.0 0.00 0.00 0.00 1011.8
20260506120032 0 0.0 0.0 0.00 0.00 0.00 1011.7
20260506114527 0 0.0 0.0 0.00 0.00 0.00 1011.4
20260506113022 0 0.0 0.0 0.00 0.00 0.00 1011.3
20260506111516 0 0.0 0.0 0.00 0.00 0.00 1010.8
20260506110014 0 0.0 0.0 0.00 0.00 0.00 1010.6
20260506104508 0 0.0 0.0 0.00 0.00 0.00 1010.4
20260506103003 0 0.0 0.0 0.00 0.00 0.00 1010.1
20260506101559 0 0.0 0.0 0.00 0.00 0.00 1010.0
20260506094608 0 0.0 0.0 0.00 0.00 0.00 1009.4
20260506093047 0 0.0 0.0 0.00 0.00 0.00 1009.4
20260506091545 59 105 0.0 2.0 0.00 0.00 0.00 76 1009.2
20260506090042 59 301 0.0 0.0 0.00 0.00 0.00 77 1009.2
20260506084540 59 352 0.0 1.0 0.00 0.00 0.00 77 1009.1
20260506083041 59 96 0.0 1.0 0.00 0.00 0.00 77 1008.7
20260506081537 59 98 0.0 1.0 0.00 0.00 0.00 77 1008.9
20260506073033 60 20 0.0 2.0 0.00 0.00 0.00 77 1008.3
20260506071530 60 103 0.0 2.0 0.00 0.00 0.00 78 1008.5
20260506061527 61 107 0.0 1.0 0.00 0.00 0.00 78 1008.3